Location: Newark
(44.6028°N, 124.0883°W)
Time: 19:25:05
(UTC+00:00)

Vanguard 1 - Pass Details

Date: 29 October 2019
Orbit: 652 x 3831 km, 34.2° (Epoch: 20 November)

Event Time Altitude Azimuth Distance (km) Brightness Sun altitude
Rises 01:18:47 0° 233° (SW) 3,177 14.3 -2.1°
Reaches altitude 10° 01:21:04 10° 222° (SW) 2,427 13.2 -2.5°
Maximum altitude 01:26:00 32° 160° (SSE) 1,777 11.4 -3.4°
Drops below altitude 10° 01:33:36 10° 102° (ESE) 3,814 12.5 -4.7°
Enters shadow 01:36:47 - 96° (E) 4,886 13.0 -5.2°
Sets 01:38:12 0° 94° (E) 5,359 - -5.5°
